FW3234 Weather Reports


Display with metric or nautical units.
time (UTC)temp
F
wind
direction
speed
MPH
gust
MPH
rain 1hr
in
rain 24hr
in
rain mn
in
humidity
%
barometer
mb
20210613211703 88 158 2.0 5.0 0.00 0.00 0.00 30 1007.8
20210613210144 87 85 0.0 6.0 0.00 0.00 0.00 31 1007.9
20210613204650 88 83 2.0 7.0 0.00 0.00 0.00 31 1008.1
20210613203053 87 136 1.0 6.0 0.00 0.00 0.00 31 1008.2
20210613201554 85 186 0.0 3.0 0.00 0.00 0.00 33 1008.5
20210613200135 86 231 0.0 9.0 0.00 0.00 0.00 33 1009.0
20210613194633 84 219 2.0 5.0 0.00 0.00 0.00 36 1009.0
20210613193133 85 155 4.0 7.0 0.00 0.00 0.00 34 1009.1
20210613191538 85 77 0.0 3.0 0.00 0.00 0.00 34 1009.3
20210613190049 83 320 1.0 4.0 0.00 0.00 0.00 35 1009.5
20210613184605 82 134 1.0 3.0 0.00 0.00 0.00 38 1009.7
20210613183056 81 325 1.0 5.0 0.00 0.00 0.00 37 1010.0
20210613181547 82 218 0.0 2.0 0.00 0.00 0.00 39 1010.1
20210613180023 80 152 1.0 6.0 0.00 0.00 0.00 39 1010.1
20210613174503 80 151 1.0 2.0 0.00 0.00 0.00 43 1010.2
20210613173132 79 316 1.0 3.0 0.00 0.00 0.00 42 1010.3
20210613171657 76 140 0.0 4.0 0.00 0.00 0.00 47 1010.2
20210613170058 76 141 1.0 5.0 0.00 0.00 0.00 47 1010.5
20210613164601 76 306 0.0 5.0 0.00 0.00 0.00 47 1010.8
20210613163220 73 28 0.0 6.0 0.00 0.00 0.00 50 1010.9
20210613161628 72 196 0.0 3.0 0.00 0.00 0.00 53 1010.8
20210613160058 72 303 1.0 4.0 0.00 0.00 0.00 53 1010.9
20210613154556 70 230 0.0 2.0 0.00 0.00 0.00 56 1011.0
20210613153030 68 103 0.0 2.0 0.00 0.00 0.00 57 1010.8
20210613151531 67 142 1.0 3.0 0.00 0.00 0.00 58 1010.8
20210613150014 65 138 0.0 0.0 0.00 0.00 0.00 61 1010.8
20210613144510 64 170 0.0 0.0 0.00 0.00 0.00 63 1010.7
20210613143009 63 49 0.0 3.0 0.00 0.00 0.00 63 1010.6
20210613141833 62 198 0.0 2.0 0.00 0.00 0.00 63 1010.6
20210613140128 62 37 1.0 2.0 0.00 0.00 0.00 64 1010.3
20210613134714 61 243 1.0 4.0 0.00 0.00 0.00 63 1010.4
20210613133155 61 46 1.0 4.0 0.00 0.00 0.00 64 1010.3
20210613131609 60 58 2.0 5.0 0.00 0.00 0.00 66 1010.3
20210613130132 59 110 0.0 2.0 0.00 0.00 0.00 66 1010.4
20210613124625 59 27 0.0 2.0 0.00 0.00 0.00 66 1010.5
20210613123048 59 30 0.0 2.0 0.00 0.00 0.00 65 1010.2
20210613121559 59 201 0.0 0.0 0.00 0.00 0.00 65 1010.2
20210613120121 58 63 0.0 2.0 0.00 0.00 0.00 65 1009.9
20210613114620 58 37 0.0 1.0 0.00 0.04 0.00 65 1009.8
20210613113033 58 96 0.0 1.0 0.00 0.04 0.00 64 1009.9
20210613111555 59 236 0.0 3.0 0.00 0.04 0.00 64 1009.8
20210613110114 59 162 0.0 5.0 0.00 0.04 0.00 64 1009.8
20210613104527 59 357 0.0 5.0 0.00 0.07 0.00 64 1009.8
20210613103038 59 158 0.0 4.0 0.00 0.07 0.00 64 1010.0
20210613100109 59 84 0.0 3.0 0.00 0.07 0.00 62 1009.9
20210613094525 60 67 0.0 5.0 0.00 0.07 0.00 61 1009.9
20210613093024 60 89 0.0 5.0 0.00 0.07 0.00 60 1010.0
20210613091536 60 274 0.0 5.0 0.00 0.07 0.00 60 1010.2
20210613090015 60 53 0.0 4.0 0.00 0.08 0.00 61 1010.2
20210613084519 59 308 0.0 3.0 0.00 0.08 0.00 61 1010.4
20210613083138 58 79 0.0 3.0 0.00 0.08 0.00 62 1010.8
20210613081623 58 113 0.0 5.0 0.00 0.08 0.00 63 1010.7
20210613080123 57 46 0.0 6.0 0.00 0.08 0.00 65 1010.8
20210613074556 55 33 0.0 0.0 0.00 0.08 0.00 68 1011.0
20210613073103 55 106 0.0 0.0 0.00 0.08 0.00 68 1011.2
20210613071613 56 106 0.0 0.0 0.00 0.08 0.00 66 1011.4
20210613070149 56 74 0.0 0.0 0.00 0.08 0.00 65 1011.6
20210613064600 56 86 0.0 0.0 0.00 0.08 0.08 64 1011.8
20210613063036 57 86 0.0 0.0 0.00 0.08 0.08 62 1011.7
20210613061530 58 61 0.0 0.0 0.00 0.08 0.08 60 1011.9
20210613060028 59 86 0.0 0.0 0.00 0.08 0.08 59 1012.3
20210613054544 60 235 0.0 2.0 0.00 0.08 0.08 58 1012.3
20210613053020 59 106 0.0 1.0 0.00 0.08 0.08 59 1012.6
20210613051525 60 113 0.0 1.0 0.00 0.08 0.08 58 1012.8
20210613050015 60 70 0.0 3.0 0.00 0.08 0.08 57 1012.9
20210613044514 60 28 0.0 2.0 0.00 0.08 0.08 57 1013.0
20210613043016 60 57 0.0 0.0 0.00 0.08 0.08 56 1013.0
20210613041523 60 164 0.0 0.0 0.00 0.08 0.08 56 1012.9
20210613040034 60 165 0.0 0.0 0.00 0.08 0.08 57 1012.9
20210613034517 62 164 0.0 0.0 0.00 0.08 0.08 53 1013.0
20210613033210 64 164 0.0 0.0 0.00 0.08 0.08 52 1013.1
20210613031631 66 164 0.0 0.0 0.00 0.08 0.08 48 1013.4
20210613030133 68 164 0.0 0.0 0.00 0.08 0.08 46 1013.4
20210613024700 69 179 0.0 0.0 0.00 0.08 0.08 44 1013.4
20210613023133 69 82 0.0 2.0 0.00 0.08 0.08 42 1013.4
20210613021746 70 4 0.0 3.0 0.00 0.08 0.08 43 1013.5
20210613020114 70 172 0.0 0.0 0.00 0.08 0.08 43 1013.7
20210613014613 71 84 0.0 2.0 0.00 0.08 0.08 43 1013.9
20210613013110 71 67 0.0 3.0 0.00 0.08 0.08 41 1013.9
20210613011705 73 277 0.0 3.0 0.00 0.08 0.08 40 1014.3
20210613010117 72 60 0.0 2.0 0.00 0.08 0.08 38 1014.4
20210613004654 72 116 1.0 6.0 0.00 0.08 0.08 36 1014.3
20210613003109 74 195 1.0 3.0 0.00 0.08 0.08 37 1014.2
20210613001607 74 138 2.0 5.0 0.00 0.08 0.08 36 1014.4
20210613000126 74 174 1.0 6.0 0.00 0.08 0.08 38 1014.5
20210612234543 73 167 0.0 2.0 0.00 0.08 0.08 38 1014.7
20210612233051 75 174 2.0 6.0 0.00 0.08 0.08 35 1014.7
20210612231543 76 158 0.0 7.0 0.00 0.08 0.08 36 1014.9
20210612230052 76 108 0.0 6.0 0.00 0.08 0.08 38 1015.1
20210612224527 75 163 1.0 9.0 0.00 0.08 0.08 39 1015.3
20210612223012 75 191 1.0 8.0 0.00 0.08 0.08 40 1015.4
20210612221510 75 137 2.0 7.0 0.00 0.08 0.08 38 1015.5
20210612220007 74 158 1.0 9.0 0.00 0.08 0.08 38 1015.9
20210612214504 73 219 0.0 6.0 0.00 0.08 0.08 38 1016.0
20210612213224 70 169 3.0 10.0 0.00 0.08 0.08 43 1016.3